Showing default

SCOT-1 (SCOT), 62617

Orbit data source: Space-Track

SCOT-1 (SCOT), 62617 is a Singaporean payload satellite in SSO that was launched on Tue, 14 Jan 2025 UTC via an FALCON 9 launch vehicle from the Air Force Western Test Range (AFWTR). Payload-class satellites include a variety of spacecraft equipped with specific instruments for various scientific and technological missions. These include communications satellites like Starlink; space stations such as the ISS; scientific satellites like the Hubble; Earth observation satellites from companies like Planet Labs, Umbra, and HawkEye 360; GPS; miniature CubeSats for education and research; and military/defense satellites.

Loading next visibility...
Identifier
62617, 2025-009J
Orbit
SSO
Country
Flag of UnknownUnknown / SING
Related business
Manufacturer
OrbAstro
Mission
Operational Commercial Early Warn
Bus & Motor
CUBESAT 6U, Unknown motor
Mass
~10 kg wet, ~10 kg dry
Launch date (UTC)
2025-01-14 (1 year ago)
Launch vehicle
FALCON 9
Launch site
Air Force Western Test Range (AFWTR)
Object type
Payload
Rocket body
Debris
Shape & HBR
Box + 2 Pan, 0.2 m
Radar Cross Section
0.080 m², Medium (>0.1 m² and < 1m²)

Expand to show TLE details & history
Last TLE update: 1 day ago

TLE from 1 day ago
0 SCOT-1 (SCOT)
1 62617U 25009J   26034.23453334  .00046026  00000-0  11548-2 0  9999
2 62617  97.3970 119.3794 0004752  73.1912 286.9855 15.39869838 58640
Epoch: 2026-02-03T05:37Z
TLE epoch observation values (Epoch: 2026-02-03T05:37:43.680Z)
Latitude
-0.00002°
Longitude
-98.47099°
Altitude
448.665 km
Speed
7.644 km/s
True Right ascension
07h 57m 31s
True Declination
0° 00' 00"
Sunlit
Object was in full shadow at epoch
Visualization orbit readout
Latitude
Unknown
Longitude
Unknown
Altitude
Unknown
Speed
Unknown
Apparent Right ascension
Unknown
Apparent Declination
Unknown
Sunlit
N/A
Visualization observer readout
Local Sidereal Time
13:04:34
Azimuth
Unknown
Elevation
Unknown
Doppler factor
Unknown
Orbital elements
Apogee altitude
446.674 km
Perigee altitude
440.191 km
Semi-major axis
6,821.57 km
Eccentricity
0.00048
Inclination
97.397°
RAAN
119.3794°
Arg. of periapsis
73.1912°
True anomaly
286.93341°
Mean anomaly
286.9855°
Eccentric anomaly
286.95946°
Mean motion
3.85227 °/min
Orbital period
93.45 mins
BSTAR
0.0011548
Loading maneuver chart data...
Computing Atmospheric mass density...
Loading historical data...
Loading historical data...
Loading historical data...
Loading historical data...
Loading historical data...
Loading historical data...
Loading historical data...

Documentation

Showing up to 5 results
|